Torna al catalogo

ICEYE-X2

AttivoScienzaSSO
NORAD 43800·PAYLOAD·🇫🇮 Finland

Lanciato Dec 3, 2018 da Vandenberg Space Force Base

Loading…

Prossimi Passaggi (prossime 24 ore)

TLE

AggiornatoSource: Space-Track

Epoca: Sep 14, 2026, 13:55 UTC

1 43800U 18099AU  26257.58038181  .00008672  00000-0  42032-3 0  9995
2 43800  97.4264 309.8606 0009862   1.2130 358.9126 15.18723793426386

Traccia ICEYE-X2 in tempo reale con AllMySat

Download on the App Store